Skip Page Navigation
NASA JPL Caltech
NASA Logo - Jet Propulsion Laboratory + View the NASA Portal
+ Near-Earth Object (NEO) Program
Search JPL
JPL Home Earth Solar System Stars & Galaxies Technology
JPL Solar System Dynamics
BODIES ORBITS EPHEMERIDES TOOLS PHYSICAL DATA DISCOVERY FAQ SITE MAP
JPL Small-Body Database Browser
Search: [ help ]  
7294 (1992 LM)
Classification: Main-belt Asteroid          SPK-ID: 2007294
Ephemeris | Orbit Diagram | Orbital Elements | Physical Parameters | Discovery Circumstances ]

[ show orbit diagram ]
Orbital Elements at Epoch 2457000.5 (2014-Dec-09.0) TDB
Reference: JPL 5 (heliocentric ecliptic J2000)
 Element Value Uncertainty (1-sigma)   Units 
e .09005980160254302 6.5948e-08  
a 2.659998564837394 2.3107e-08 AU
q 2.42043962182509 1.7928e-07 AU
i 6.708528336590574 6.6064e-06 deg
node 74.15674739698714 6.2193e-05 deg
peri 72.62372236862829 7.4378e-05 deg
M 154.478886324282 4.0313e-05 deg
tp 2456320.534059522655
(2013-Jan-28.03405952)
0.00017686 JED
period 1584.603206278855
4.34
2.0648e-05
5.653e-08
d
yr
n .2271862120267905 2.9604e-09 deg/d
Q 2.8995575078497 2.5189e-08 AU
  Orbit Determination Parameters
   # obs. used (total)      976  
   data-arc span      9480 days (25.95 yr)  
   first obs. used      1989-09-02  
   last obs. used      2015-08-17  
   planetary ephem.      DE431  
   SB-pert. ephem.      SB431-BIG16  
   condition code      0  
   fit RMS      .49854  
   data source      ORB  
   producer      Otto Matic  
   solution date      2015-Sep-02 14:21:40  

Additional Information
 Earth MOID = 1.4433 AU 
 T_jup = 3.371 
[ show covariance matrix ]

Ephemeris | Orbit Diagram | Orbital Elements | Physical Parameters | Discovery Circumstances ]

Physical Parameter Table
Parameter Symbol Value Units Sigma Reference Notes
absolute magnitude H 12.8 mag n/a PDS3 (MPC 28287)  

7294 (1992 LM)          Discovered 1992-Jun-03 by Leonard, G. J. at Palomar
Reference: DISCOVERY.DBLast Updated: 2003-08-29
Ephemeris | Orbit Diagram | Orbital Elements | Physical Parameters | Discovery Circumstances ]
ABOUT SSD CREDITS/AWARDS PRIVACY/COPYRIGHT GLOSSARY LINKS
FirstGov 2015-Sep-04 18:48 UT
(server date/time)  
NASA Home Page
Site Manager:   Ryan S. Park
Webmaster  Alan B. Chamberlin